Year,Month,Day,Hour,Minute,Value (Times are PST for temperature in C)
2019,05,30,00,00,13.60
2019,05,30,00,01,13.50
2019,05,30,00,02,13.50
2019,05,30,00,03,13.50
2019,05,30,00,04,13.50
2019,05,30,00,05,13.50
2019,05,30,00,06,13.50
2019,05,30,00,07,13.50
2019,05,30,00,08,13.50
2019,05,30,00,09,13.40
2019,05,30,00,10,13.40
2019,05,30,00,11,13.40
2019,05,30,00,12,13.40
2019,05,30,00,13,13.30
2019,05,30,00,14,13.30
2019,05,30,00,15,13.30
2019,05,30,00,16,13.20
2019,05,30,00,17,13.20
2019,05,30,00,18,13.20
2019,05,30,00,19,13.10
2019,05,30,00,20,13.10
2019,05,30,00,21,13.10
2019,05,30,00,22,13.10
2019,05,30,00,23,13.00
2019,05,30,00,24,13.00
2019,05,30,00,25,12.90
2019,05,30,00,26,12.90
2019,05,30,00,27,12.90
2019,05,30,00,28,12.90
2019,05,30,00,29,12.80
2019,05,30,00,30,12.80
2019,05,30,00,31,12.80
2019,05,30,00,32,12.70
2019,05,30,00,33,12.70
2019,05,30,00,34,12.70
2019,05,30,00,35,12.70
2019,05,30,00,36,12.60
2019,05,30,00,37,12.60
2019,05,30,00,38,12.60
2019,05,30,00,39,12.60
2019,05,30,00,40,12.50
2019,05,30,00,41,12.50
2019,05,30,00,42,12.50
2019,05,30,00,43,12.40
2019,05,30,00,44,12.40
2019,05,30,00,45,12.40
2019,05,30,00,46,12.40
2019,05,30,00,47,12.30
2019,05,30,00,48,12.30
2019,05,30,00,49,12.30
2019,05,30,00,50,12.30
2019,05,30,00,51,12.30
2019,05,30,00,52,12.20
2019,05,30,00,53,12.20
2019,05,30,00,54,12.20
2019,05,30,00,55,12.20
2019,05,30,00,56,12.20
2019,05,30,00,57,12.10
2019,05,30,00,58,12.10
2019,05,30,00,59,12.10
2019,05,30,01,00,12.10
2019,05,30,01,01,12.10
2019,05,30,01,02,12.10
2019,05,30,01,03,12.00
2019,05,30,01,04,12.00
2019,05,30,01,05,12.00
2019,05,30,01,06,11.90
2019,05,30,01,07,11.90
2019,05,30,01,08,11.90
2019,05,30,01,09,11.90
2019,05,30,01,10,11.90
2019,05,30,01,11,11.90
2019,05,30,01,12,11.90
2019,05,30,01,13,11.80
2019,05,30,01,14,11.80
2019,05,30,01,15,11.80
2019,05,30,01,16,11.80
2019,05,30,01,17,11.80
2019,05,30,01,18,11.80
2019,05,30,01,19,11.80
2019,05,30,01,20,11.80
2019,05,30,01,21,11.80
2019,05,30,01,22,11.80
2019,05,30,01,23,11.70
2019,05,30,01,24,11.70
2019,05,30,01,25,11.70
2019,05,30,01,26,11.70
2019,05,30,01,27,11.70
2019,05,30,01,28,11.70
2019,05,30,01,29,11.70
2019,05,30,01,30,11.70
2019,05,30,01,31,11.70
2019,05,30,01,32,11.60
2019,05,30,01,33,11.60
2019,05,30,01,34,11.60
2019,05,30,01,35,11.60
2019,05,30,01,36,11.60
2019,05,30,01,37,11.50
2019,05,30,01,38,11.50
2019,05,30,01,39,11.50
2019,05,30,01,40,11.40
2019,05,30,01,41,11.40
2019,05,30,01,42,11.40
2019,05,30,01,43,11.40
2019,05,30,01,44,11.40
2019,05,30,01,45,11.40
2019,05,30,01,46,11.40
2019,05,30,01,47,11.40
2019,05,30,01,48,11.40
2019,05,30,01,49,11.30
2019,05,30,01,50,11.30
2019,05,30,01,51,11.30
2019,05,30,01,52,11.30
2019,05,30,01,53,11.30
2019,05,30,01,54,11.30
2019,05,30,01,55,11.20
2019,05,30,01,56,11.20
2019,05,30,01,57,11.20
2019,05,30,01,58,11.20
2019,05,30,01,59,11.20
2019,05,30,02,00,11.20
2019,05,30,02,01,11.20
2019,05,30,02,02,11.20
2019,05,30,02,03,11.20
2019,05,30,02,04,11.20
2019,05,30,02,05,11.10
2019,05,30,02,06,11.10
2019,05,30,02,07,11.10
2019,05,30,02,08,11.10
2019,05,30,02,09,11.10
2019,05,30,02,10,11.10
2019,05,30,02,11,11.10
2019,05,30,02,12,11.10
2019,05,30,02,13,11.10
2019,05,30,02,14,11.00
2019,05,30,02,15,11.00
2019,05,30,02,16,11.00
2019,05,30,02,17,11.00
2019,05,30,02,18,11.00
2019,05,30,02,19,10.90
2019,05,30,02,20,10.90
2019,05,30,02,21,10.90
2019,05,30,02,22,10.90
2019,05,30,02,23,10.90
2019,05,30,02,24,10.90
2019,05,30,02,25,10.90
2019,05,30,02,26,10.80
2019,05,30,02,27,10.80
2019,05,30,02,28,10.80
2019,05,30,02,29,10.80
2019,05,30,02,30,10.80
2019,05,30,02,31,10.80
2019,05,30,02,32,10.80
2019,05,30,02,33,10.80
2019,05,30,02,34,10.70
2019,05,30,02,35,10.70
2019,05,30,02,36,10.70
2019,05,30,02,37,10.70
2019,05,30,02,38,10.70
2019,05,30,02,39,10.70
2019,05,30,02,40,10.60
2019,05,30,02,41,10.60
2019,05,30,02,42,10.60
2019,05,30,02,43,10.60
2019,05,30,02,44,10.60
2019,05,30,02,45,10.60
2019,05,30,02,46,10.60
2019,05,30,02,47,10.60
2019,05,30,02,48,10.60
2019,05,30,02,49,10.60
2019,05,30,02,50,10.60
2019,05,30,02,51,10.60
2019,05,30,02,52,10.60
2019,05,30,02,53,10.60
2019,05,30,02,54,10.60
2019,05,30,02,55,10.60
2019,05,30,02,56,10.60
2019,05,30,02,57,10.50
2019,05,30,02,58,10.50
2019,05,30,02,59,10.50
2019,05,30,03,00,10.50
2019,05,30,03,01,10.50
2019,05,30,03,02,10.40
2019,05,30,03,03,10.40
2019,05,30,03,04,10.40
2019,05,30,03,05,10.40
2019,05,30,03,06,10.40
2019,05,30,03,07,10.30
2019,05,30,03,08,10.30
2019,05,30,03,09,10.30
2019,05,30,03,10,10.30
2019,05,30,03,11,10.30
2019,05,30,03,12,10.30
2019,05,30,03,13,10.30
2019,05,30,03,14,10.30
2019,05,30,03,15,10.30
2019,05,30,03,16,10.30
2019,05,30,03,17,10.20
2019,05,30,03,18,10.20
2019,05,30,03,19,10.20
2019,05,30,03,20,10.20
2019,05,30,03,21,10.20
2019,05,30,03,22,10.20
2019,05,30,03,23,10.20
2019,05,30,03,24,10.10
2019,05,30,03,25,10.10
2019,05,30,03,26,10.10
2019,05,30,03,27,10.10
2019,05,30,03,28,10.10
2019,05,30,03,29,10.10
2019,05,30,03,30,10.10
2019,05,30,03,31,10.00
2019,05,30,03,32,10.00
2019,05,30,03,33,10.00
2019,05,30,03,34,10.00
2019,05,30,03,35,10.00
2019,05,30,03,36,9.90
2019,05,30,03,37,9.90
2019,05,30,03,38,9.90
2019,05,30,03,39,9.90
2019,05,30,03,40,9.90
2019,05,30,03,41,9.90
2019,05,30,03,42,9.90
2019,05,30,03,43,9.80
2019,05,30,03,44,9.80
2019,05,30,03,45,9.80
2019,05,30,03,46,9.80
2019,05,30,03,47,9.80
2019,05,30,03,48,9.80
2019,05,30,03,49,9.80
2019,05,30,03,50,9.80
2019,05,30,03,51,9.80
2019,05,30,03,52,9.80
2019,05,30,03,53,9.70
2019,05,30,03,54,9.70
2019,05,30,03,55,9.70
2019,05,30,03,56,9.70
2019,05,30,03,57,9.70
2019,05,30,03,58,9.70
2019,05,30,03,59,9.70
2019,05,30,04,00,9.70
2019,05,30,04,01,9.70
2019,05,30,04,02,9.70
2019,05,30,04,03,9.70
2019,05,30,04,04,9.60
2019,05,30,04,05,9.60
2019,05,30,04,06,9.60
2019,05,30,04,07,9.60
2019,05,30,04,08,9.60
2019,05,30,04,09,9.60
2019,05,30,04,10,9.60
2019,05,30,04,11,9.60
2019,05,30,04,12,9.50
2019,05,30,04,13,9.50
2019,05,30,04,14,9.50
2019,05,30,04,15,9.50
2019,05,30,04,16,9.50
2019,05,30,04,17,9.40
2019,05,30,04,18,9.40
2019,05,30,04,19,9.40
2019,05,30,04,20,9.40
2019,05,30,04,21,9.40
2019,05,30,04,22,9.40
2019,05,30,04,23,9.40
2019,05,30,04,24,9.40
2019,05,30,04,25,9.40
2019,05,30,04,26,9.40
2019,05,30,04,27,9.40
2019,05,30,04,28,9.40
2019,05,30,04,29,9.40
2019,05,30,04,30,9.40
2019,05,30,04,31,9.30
2019,05,30,04,32,9.30
2019,05,30,04,33,9.30
2019,05,30,04,34,9.30
2019,05,30,04,35,9.30
2019,05,30,04,36,9.30
2019,05,30,04,37,9.30
2019,05,30,04,38,9.30
2019,05,30,04,39,9.30
2019,05,30,04,40,9.30
2019,05,30,04,41,9.30
2019,05,30,04,42,9.30
2019,05,30,04,43,9.30
2019,05,30,04,44,9.30
2019,05,30,04,45,9.30
2019,05,30,04,46,9.20
2019,05,30,04,47,9.20
2019,05,30,04,48,9.20
2019,05,30,04,49,9.20
2019,05,30,04,50,9.20
2019,05,30,04,51,9.20
2019,05,30,04,52,9.20
2019,05,30,04,53,9.20
2019,05,30,04,54,9.20
2019,05,30,04,55,9.20
2019,05,30,04,56,9.20
2019,05,30,04,57,9.10
2019,05,30,04,58,9.10
2019,05,30,04,59,9.10
2019,05,30,05,00,9.10
2019,05,30,05,01,9.10
2019,05,30,05,02,9.10
2019,05,30,05,03,9.10
2019,05,30,05,04,9.10
2019,05,30,05,05,9.00
2019,05,30,05,06,9.00
2019,05,30,05,07,9.00
2019,05,30,05,08,9.00
2019,05,30,05,09,9.00
2019,05,30,05,10,9.00
2019,05,30,05,11,9.00
2019,05,30,05,12,9.00
2019,05,30,05,13,8.90
2019,05,30,05,14,8.90
2019,05,30,05,15,8.90
2019,05,30,05,16,8.90
2019,05,30,05,17,8.90
2019,05,30,05,18,8.80
2019,05,30,05,19,8.80
2019,05,30,05,20,8.80
2019,05,30,05,21,8.80
2019,05,30,05,22,8.80
2019,05,30,05,23,8.80
2019,05,30,05,24,8.80
2019,05,30,05,25,8.80
2019,05,30,05,26,8.80
2019,05,30,05,27,8.80
2019,05,30,05,28,8.80
2019,05,30,05,29,8.80
2019,05,30,05,30,8.80
2019,05,30,05,31,8.80
2019,05,30,05,32,8.80
2019,05,30,05,33,8.80
2019,05,30,05,34,8.70
2019,05,30,05,35,8.70
2019,05,30,05,36,8.70
2019,05,30,05,37,8.70
2019,05,30,05,38,8.70
2019,05,30,05,39,8.70
2019,05,30,05,40,8.70
2019,05,30,05,41,8.70
2019,05,30,05,42,8.70
2019,05,30,05,43,8.70
2019,05,30,05,44,8.70
2019,05,30,05,45,8.70
2019,05,30,05,46,8.70
2019,05,30,05,47,8.70
2019,05,30,05,48,8.70
2019,05,30,05,49,8.70
2019,05,30,05,50,8.60
2019,05,30,05,51,8.60
2019,05,30,05,52,8.60
2019,05,30,05,53,8.60
2019,05,30,05,54,8.60
2019,05,30,05,55,8.60
2019,05,30,05,56,8.60
2019,05,30,05,57,8.60
2019,05,30,05,58,8.60
2019,05,30,05,59,8.60
2019,05,30,06,00,8.60
2019,05,30,06,01,8.60
2019,05,30,06,02,8.60
2019,05,30,06,03,8.60
2019,05,30,06,04,8.60
2019,05,30,06,05,8.60
2019,05,30,06,06,8.60
2019,05,30,06,07,8.60
2019,05,30,06,08,8.60
2019,05,30,06,09,8.60
2019,05,30,06,10,8.60
2019,05,30,06,11,8.60
2019,05,30,06,12,8.60
2019,05,30,06,13,8.60
2019,05,30,06,14,8.60
2019,05,30,06,15,8.60
2019,05,30,06,16,8.60
2019,05,30,06,17,8.60
2019,05,30,06,18,8.60
2019,05,30,06,19,8.60
2019,05,30,06,20,8.60
2019,05,30,06,21,8.60
2019,05,30,06,22,8.60
2019,05,30,06,23,8.60
2019,05,30,06,24,8.60
2019,05,30,06,25,8.60
2019,05,30,06,26,8.60
2019,05,30,06,27,8.60
2019,05,30,06,28,8.60
2019,05,30,06,29,8.60
2019,05,30,06,30,8.60
2019,05,30,06,31,8.60
2019,05,30,06,32,8.60
2019,05,30,06,33,8.60
2019,05,30,06,34,8.60
2019,05,30,06,35,8.60
2019,05,30,06,36,8.60
2019,05,30,06,37,8.60
2019,05,30,06,38,8.60
2019,05,30,06,39,8.60
2019,05,30,06,40,8.60
2019,05,30,06,41,8.60
2019,05,30,06,42,8.60
2019,05,30,06,43,8.60
2019,05,30,06,44,8.60
2019,05,30,06,45,8.60
2019,05,30,06,46,8.60
2019,05,30,06,47,8.60
2019,05,30,06,48,8.60
2019,05,30,06,49,8.70
2019,05,30,06,50,8.70
2019,05,30,06,51,8.70
2019,05,30,06,52,8.70
2019,05,30,06,53,8.70
2019,05,30,06,54,8.70
2019,05,30,06,55,8.80
2019,05,30,06,56,8.80
2019,05,30,06,57,8.80
2019,05,30,06,58,8.80
2019,05,30,06,59,8.90
2019,05,30,07,00,8.90
2019,05,30,07,01,8.90
2019,05,30,07,02,9.00
2019,05,30,07,03,9.10
2019,05,30,07,04,9.10
2019,05,30,07,05,9.20
2019,05,30,07,06,9.30
2019,05,30,07,07,9.40
2019,05,30,07,08,9.50
2019,05,30,07,09,9.50
2019,05,30,07,10,9.60
2019,05,30,07,11,9.70
2019,05,30,07,12,9.70
2019,05,30,07,13,9.70
2019,05,30,07,14,9.70
2019,05,30,07,15,9.70
2019,05,30,07,16,9.80
2019,05,30,07,17,9.80
2019,05,30,07,18,9.90
2019,05,30,07,19,10.00
2019,05,30,07,20,10.10
2019,05,30,07,21,10.20
2019,05,30,07,22,10.30
2019,05,30,07,23,10.40
2019,05,30,07,24,10.50
2019,05,30,07,25,10.50
2019,05,30,07,26,10.60
2019,05,30,07,27,10.70
2019,05,30,07,28,10.70
2019,05,30,07,29,10.60
2019,05,30,07,30,10.60
2019,05,30,07,31,10.60
2019,05,30,07,32,10.70
2019,05,30,07,33,10.80
2019,05,30,07,34,10.90
2019,05,30,07,35,10.90
2019,05,30,07,36,11.00
2019,05,30,07,37,11.00
2019,05,30,07,38,11.10
2019,05,30,07,39,11.20
2019,05,30,07,40,11.20
2019,05,30,07,41,11.20
2019,05,30,07,42,11.30
2019,05,30,07,43,11.30
2019,05,30,07,44,11.40
2019,05,30,07,45,11.50
2019,05,30,07,46,11.60
2019,05,30,07,47,11.80
2019,05,30,07,48,11.90
2019,05,30,07,49,11.90
2019,05,30,07,50,12.00
2019,05,30,07,51,12.10
2019,05,30,07,52,12.20
2019,05,30,07,53,12.20
2019,05,30,07,54,12.30
2019,05,30,07,55,12.30
2019,05,30,07,56,12.30
2019,05,30,07,57,12.30
2019,05,30,07,58,12.30
2019,05,30,07,59,12.30
2019,05,30,08,00,12.40
2019,05,30,08,01,12.40
2019,05,30,08,02,12.40
2019,05,30,08,03,12.50
2019,05,30,08,04,12.50
2019,05,30,08,05,12.60
2019,05,30,08,06,12.60
2019,05,30,08,07,12.70
2019,05,30,08,08,12.70
2019,05,30,08,09,12.80
2019,05,30,08,10,12.80
2019,05,30,08,11,12.90
2019,05,30,08,12,13.00
2019,05,30,08,13,13.00
2019,05,30,08,14,13.10
2019,05,30,08,15,13.10
2019,05,30,08,16,13.20
2019,05,30,08,17,13.30
2019,05,30,08,18,13.30
2019,05,30,08,19,13.40
2019,05,30,08,20,13.40
2019,05,30,08,21,13.50
2019,05,30,08,22,13.50
2019,05,30,08,23,13.60
2019,05,30,08,24,13.60
2019,05,30,08,25,13.60
2019,05,30,08,26,13.70
2019,05,30,08,27,13.70
2019,05,30,08,28,13.80
2019,05,30,08,29,13.80
2019,05,30,08,30,13.90
2019,05,30,08,31,14.00
2019,05,30,08,32,14.00
2019,05,30,08,33,14.10
2019,05,30,08,34,14.20
2019,05,30,08,35,14.30
2019,05,30,08,36,14.30
2019,05,30,08,37,14.30
2019,05,30,08,38,14.40
2019,05,30,08,39,14.40
2019,05,30,08,40,14.40
2019,05,30,08,41,14.40
2019,05,30,08,42,14.50
2019,05,30,08,43,14.50
2019,05,30,08,44,14.60
2019,05,30,08,45,14.70
2019,05,30,08,46,14.80
2019,05,30,08,47,14.90
2019,05,30,08,48,15.00
2019,05,30,08,49,15.00
2019,05,30,08,50,15.10
2019,05,30,08,51,15.20
2019,05,30,08,52,15.30
2019,05,30,08,53,15.40
2019,05,30,08,54,15.40
2019,05,30,08,55,15.50
2019,05,30,08,56,15.50
2019,05,30,08,57,15.60
2019,05,30,08,58,15.60
2019,05,30,08,59,15.60
2019,05,30,09,00,15.70
2019,05,30,09,01,15.70
2019,05,30,09,02,15.80
2019,05,30,09,03,15.80
2019,05,30,09,04,15.80
2019,05,30,09,05,15.80
2019,05,30,09,06,15.80
2019,05,30,09,07,15.80
2019,05,30,09,08,15.80
2019,05,30,09,09,15.90
2019,05,30,09,10,15.90
2019,05,30,09,11,15.90
2019,05,30,09,12,15.90
2019,05,30,09,13,15.80
2019,05,30,09,14,15.80
2019,05,30,09,15,15.80
2019,05,30,09,16,15.80
2019,05,30,09,17,15.90
2019,05,30,09,18,16.00
2019,05,30,09,19,16.20
2019,05,30,09,20,16.30
2019,05,30,09,21,16.40
2019,05,30,09,22,16.40
2019,05,30,09,23,16.50
2019,05,30,09,24,16.50
2019,05,30,09,25,16.60
2019,05,30,09,26,16.60
2019,05,30,09,27,16.60
2019,05,30,09,28,16.50
2019,05,30,09,29,16.50
2019,05,30,09,30,16.50
2019,05,30,09,31,16.50
2019,05,30,09,32,16.50
2019,05,30,09,33,16.60
2019,05,30,09,34,16.70
2019,05,30,09,35,16.70
2019,05,30,09,36,16.70
2019,05,30,09,37,16.80
2019,05,30,09,38,17.00
2019,05,30,09,39,17.10
2019,05,30,09,40,17.30
2019,05,30,09,41,17.40
2019,05,30,09,42,17.50
2019,05,30,09,43,17.60
2019,05,30,09,44,17.70
2019,05,30,09,45,17.70
2019,05,30,09,46,17.70
2019,05,30,09,47,17.70
2019,05,30,09,48,17.70
2019,05,30,09,49,17.70
2019,05,30,09,50,17.80
2019,05,30,09,51,17.80
2019,05,30,09,52,17.90
2019,05,30,09,53,18.00
2019,05,30,09,54,18.10
2019,05,30,09,55,18.20
2019,05,30,09,56,18.20
2019,05,30,09,57,18.30
2019,05,30,09,58,18.40
2019,05,30,09,59,18.40
2019,05,30,10,00,18.40
2019,05,30,10,01,18.40
2019,05,30,10,02,18.40
2019,05,30,10,03,18.40
2019,05,30,10,04,18.40
2019,05,30,10,05,18.40
2019,05,30,10,06,18.30
2019,05,30,10,07,18.30
2019,05,30,10,08,18.30
2019,05,30,10,09,18.40
2019,05,30,10,10,18.40
2019,05,30,10,11,18.40
2019,05,30,10,12,18.40
2019,05,30,10,13,18.50
2019,05,30,10,14,18.50
2019,05,30,10,15,18.60
2019,05,30,10,16,18.60
2019,05,30,10,17,18.60
2019,05,30,10,18,18.60
2019,05,30,10,19,18.60
2019,05,30,10,20,18.60
2019,05,30,10,21,18.60
2019,05,30,10,22,18.60
2019,05,30,10,23,18.60
2019,05,30,10,24,18.70
2019,05,30,10,25,18.80
2019,05,30,10,26,18.90
2019,05,30,10,27,19.00
2019,05,30,10,28,19.20
2019,05,30,10,29,19.40
2019,05,30,10,30,19.40
2019,05,30,10,31,19.40
2019,05,30,10,32,19.40
2019,05,30,10,33,19.40
2019,05,30,10,34,19.40
2019,05,30,10,35,19.40
2019,05,30,10,36,19.40
2019,05,30,10,37,19.50
2019,05,30,10,38,19.70
2019,05,30,10,39,19.80
2019,05,30,10,40,19.80
2019,05,30,10,41,19.90
2019,05,30,10,42,19.90
2019,05,30,10,43,19.90
2019,05,30,10,44,19.90
2019,05,30,10,45,19.90
2019,05,30,10,46,19.90
2019,05,30,10,47,19.90
2019,05,30,10,48,19.90
2019,05,30,10,49,19.90
2019,05,30,10,50,20.00
2019,05,30,10,51,20.10
2019,05,30,10,52,20.20
2019,05,30,10,53,20.30
2019,05,30,10,54,20.50
2019,05,30,10,55,20.60
2019,05,30,10,56,20.70
2019,05,30,10,57,20.70
2019,05,30,10,58,20.70
2019,05,30,10,59,20.70
2019,05,30,11,00,20.70
2019,05,30,11,01,20.70
2019,05,30,11,02,20.80
2019,05,30,11,03,20.90
2019,05,30,11,04,21.00
2019,05,30,11,05,21.20
2019,05,30,11,06,21.20
2019,05,30,11,07,21.30
2019,05,30,11,08,21.40
2019,05,30,11,09,21.60
2019,05,30,11,10,21.70
2019,05,30,11,11,21.80
2019,05,30,11,12,22.00
2019,05,30,11,13,22.20
2019,05,30,11,14,22.30
2019,05,30,11,15,22.30
2019,05,30,11,16,22.30
2019,05,30,11,17,22.30
2019,05,30,11,18,22.30
2019,05,30,11,19,22.30
2019,05,30,11,20,22.30
2019,05,30,11,21,22.30
2019,05,30,11,22,22.30
2019,05,30,11,23,22.30
2019,05,30,11,24,22.30
2019,05,30,11,25,22.30
2019,05,30,11,26,22.30
2019,05,30,11,27,22.30
2019,05,30,11,28,22.30
2019,05,30,11,29,22.40
2019,05,30,11,30,22.40
2019,05,30,11,31,22.50
2019,05,30,11,32,22.50
2019,05,30,11,33,22.60
2019,05,30,11,34,22.70
2019,05,30,11,35,22.80
2019,05,30,11,36,22.80
2019,05,30,11,37,22.90
2019,05,30,11,38,22.90
2019,05,30,11,39,22.90
2019,05,30,11,40,22.90
2019,05,30,11,41,23.00
2019,05,30,11,42,23.10
2019,05,30,11,43,23.30
2019,05,30,11,44,23.40
2019,05,30,11,45,23.50
2019,05,30,11,46,23.50
2019,05,30,11,47,23.60
2019,05,30,11,48,23.70
2019,05,30,11,49,23.80
2019,05,30,11,50,23.80
2019,05,30,11,51,23.90
2019,05,30,11,52,23.90
2019,05,30,11,53,24.00
2019,05,30,11,54,24.00
2019,05,30,11,55,24.00
2019,05,30,11,56,24.00
2019,05,30,11,57,24.00
2019,05,30,11,58,24.00
2019,05,30,11,59,24.10
2019,05,30,12,00,24.10
2019,05,30,12,01,24.20
2019,05,30,12,02,24.30
2019,05,30,12,03,24.30
2019,05,30,12,04,24.40
2019,05,30,12,05,24.40
2019,05,30,12,06,24.40
2019,05,30,12,07,24.40
2019,05,30,12,08,24.40
2019,05,30,12,09,24.40
2019,05,30,12,10,24.50
2019,05,30,12,11,24.60
2019,05,30,12,12,24.60
2019,05,30,12,13,24.60
2019,05,30,12,14,24.60
2019,05,30,12,15,24.60
2019,05,30,12,16,24.70
2019,05,30,12,17,24.80
2019,05,30,12,18,24.80
2019,05,30,12,19,24.90
2019,05,30,12,20,24.90
2019,05,30,12,21,24.90
2019,05,30,12,22,24.90
2019,05,30,12,23,24.80
2019,05,30,12,24,24.80
2019,05,30,12,25,24.80
2019,05,30,12,26,24.80
2019,05,30,12,27,24.80
2019,05,30,12,28,24.60
2019,05,30,12,29,24.50
2019,05,30,12,30,24.40
2019,05,30,12,31,24.40
2019,05,30,12,32,24.30
2019,05,30,12,33,24.20
2019,05,30,12,34,24.20
2019,05,30,12,35,24.10
2019,05,30,12,36,24.10
2019,05,30,12,37,24.00
2019,05,30,12,38,24.00
2019,05,30,12,39,24.10
2019,05,30,12,40,24.10
2019,05,30,12,41,24.10
2019,05,30,12,42,24.10
2019,05,30,12,43,24.20
2019,05,30,12,44,24.20
2019,05,30,12,45,24.20
2019,05,30,12,46,24.20
2019,05,30,12,47,24.10
2019,05,30,12,48,24.00
2019,05,30,12,49,24.00
2019,05,30,12,50,24.00
2019,05,30,12,51,24.10
2019,05,30,12,52,24.10
2019,05,30,12,53,24.10
2019,05,30,12,54,24.10
2019,05,30,12,55,24.20
2019,05,30,12,56,24.20
2019,05,30,12,57,24.30
2019,05,30,12,58,24.30
2019,05,30,12,59,24.40
2019,05,30,13,00,24.40
2019,05,30,13,01,24.50
2019,05,30,13,02,24.60
2019,05,30,13,03,24.60
2019,05,30,13,04,24.60
2019,05,30,13,05,24.60
2019,05,30,13,06,24.50
2019,05,30,13,07,24.60
2019,05,30,13,08,24.60
2019,05,30,13,09,24.60
2019,05,30,13,10,24.60
2019,05,30,13,11,24.60
2019,05,30,13,12,24.60
2019,05,30,13,13,24.60
2019,05,30,13,14,24.50
2019,05,30,13,15,24.60
2019,05,30,13,16,24.70
2019,05,30,13,17,24.70
2019,05,30,13,18,24.80
2019,05,30,13,19,24.80
2019,05,30,13,20,24.90
2019,05,30,13,21,24.90
2019,05,30,13,22,25.00
2019,05,30,13,23,25.10
2019,05,30,13,24,25.20
2019,05,30,13,25,25.20
2019,05,30,13,26,25.20
2019,05,30,13,27,25.30
2019,05,30,13,28,25.30
2019,05,30,13,29,25.40
2019,05,30,13,30,25.40
2019,05,30,13,31,25.40
2019,05,30,13,32,25.50
2019,05,30,13,33,25.60
2019,05,30,13,34,25.70
2019,05,30,13,35,25.80
2019,05,30,13,36,25.90
2019,05,30,13,37,25.90
2019,05,30,13,38,25.90
2019,05,30,13,39,26.00
2019,05,30,13,40,26.00
2019,05,30,13,41,26.00
2019,05,30,13,42,25.90
2019,05,30,13,43,26.00
2019,05,30,13,44,26.00
2019,05,30,13,45,26.00
2019,05,30,13,46,25.90
2019,05,30,13,47,25.80
2019,05,30,13,48,25.90
2019,05,30,13,49,25.90
2019,05,30,13,50,26.00
2019,05,30,13,51,26.10
2019,05,30,13,52,26.10
2019,05,30,13,53,26.00
2019,05,30,13,54,26.00
2019,05,30,13,55,26.10
2019,05,30,13,56,26.20
2019,05,30,13,57,26.30
2019,05,30,13,58,26.30
2019,05,30,13,59,26.20
2019,05,30,14,00,26.20
2019,05,30,14,01,26.10
2019,05,30,14,02,26.10
2019,05,30,14,03,26.10
2019,05,30,14,04,26.10
2019,05,30,14,05,26.10
2019,05,30,14,06,26.10
2019,05,30,14,07,26.20
2019,05,30,14,08,26.20
2019,05,30,14,09,26.30
2019,05,30,14,10,26.40
2019,05,30,14,11,26.40
2019,05,30,14,12,26.30
2019,05,30,14,13,26.30
2019,05,30,14,14,26.30
2019,05,30,14,15,26.30
2019,05,30,14,16,26.40
2019,05,30,14,17,26.50
2019,05,30,14,18,26.50
2019,05,30,14,19,26.60
2019,05,30,14,20,26.60
2019,05,30,14,21,26.60
2019,05,30,14,22,26.60
2019,05,30,14,23,26.60
2019,05,30,14,24,26.70
2019,05,30,14,25,26.70
2019,05,30,14,26,26.70
2019,05,30,14,27,26.60
2019,05,30,14,28,26.60
2019,05,30,14,29,26.70
2019,05,30,14,30,26.70
2019,05,30,14,31,26.60
2019,05,30,14,32,26.60
2019,05,30,14,33,26.60
2019,05,30,14,34,26.60
2019,05,30,14,35,26.60
2019,05,30,14,36,26.70
2019,05,30,14,37,26.80
2019,05,30,14,38,26.80
2019,05,30,14,39,26.90
2019,05,30,14,40,27.00
2019,05,30,14,41,27.00
2019,05,30,14,42,27.00
2019,05,30,14,43,27.00
2019,05,30,14,44,26.90
2019,05,30,14,45,26.90
2019,05,30,14,46,26.90
2019,05,30,14,47,26.80
2019,05,30,14,48,26.90
2019,05,30,14,49,26.90
2019,05,30,14,50,26.90
2019,05,30,14,51,26.90
2019,05,30,14,52,26.80
2019,05,30,14,53,26.70
2019,05,30,14,54,26.60
2019,05,30,14,55,26.60
2019,05,30,14,56,26.70
2019,05,30,14,57,26.70
2019,05,30,14,58,26.80
2019,05,30,14,59,26.90
2019,05,30,15,00,26.90
2019,05,30,15,01,26.90
2019,05,30,15,02,27.00
2019,05,30,15,03,27.00
2019,05,30,15,04,26.90
2019,05,30,15,05,26.80
2019,05,30,15,06,26.80
2019,05,30,15,07,26.80
2019,05,30,15,08,26.70
2019,05,30,15,09,26.70
2019,05,30,15,10,26.70
2019,05,30,15,11,26.70
2019,05,30,15,12,26.70
2019,05,30,15,13,26.80
2019,05,30,15,14,26.80
2019,05,30,15,15,26.80
2019,05,30,15,16,26.90
2019,05,30,15,17,26.90
2019,05,30,15,18,27.00
2019,05,30,15,19,27.00
2019,05,30,15,20,27.00
2019,05,30,15,21,26.90
2019,05,30,15,22,26.80
2019,05,30,15,23,26.90
2019,05,30,15,24,27.00
2019,05,30,15,25,27.10
2019,05,30,15,26,27.20
2019,05,30,15,27,27.10
2019,05,30,15,28,27.10
2019,05,30,15,29,27.10
2019,05,30,15,30,27.10
2019,05,30,15,31,27.20
2019,05,30,15,32,27.20
2019,05,30,15,33,27.20
2019,05,30,15,34,27.20
2019,05,30,15,35,27.20
2019,05,30,15,36,27.20
2019,05,30,15,37,27.10
2019,05,30,15,38,27.10
2019,05,30,15,39,27.00
2019,05,30,15,40,26.90
2019,05,30,15,41,26.90
2019,05,30,15,42,26.80
2019,05,30,15,43,26.80
2019,05,30,15,44,26.80
2019,05,30,15,45,26.80
2019,05,30,15,46,26.90
2019,05,30,15,47,26.90
2019,05,30,15,48,26.90
2019,05,30,15,49,26.90
2019,05,30,15,50,26.90
2019,05,30,15,51,27.00
2019,05,30,15,52,27.00
2019,05,30,15,53,27.10
2019,05,30,15,54,27.10
2019,05,30,15,55,27.10
2019,05,30,15,56,27.10
2019,05,30,15,57,27.00
2019,05,30,15,58,27.00
2019,05,30,15,59,27.00
2019,05,30,16,00,27.00
2019,05,30,16,01,26.90
2019,05,30,16,02,26.90
2019,05,30,16,03,26.90
2019,05,30,16,04,27.00
2019,05,30,16,05,27.00
2019,05,30,16,06,27.00
2019,05,30,16,07,26.90
2019,05,30,16,08,26.90
2019,05,30,16,09,26.90
2019,05,30,16,10,27.00
2019,05,30,16,11,27.10
2019,05,30,16,12,27.10
2019,05,30,16,13,27.10
2019,05,30,16,14,27.10
2019,05,30,16,15,27.10
2019,05,30,16,16,27.10
2019,05,30,16,17,27.10
2019,05,30,16,18,27.10
2019,05,30,16,19,27.00
2019,05,30,16,20,26.90
2019,05,30,16,21,26.90
2019,05,30,16,22,27.00
2019,05,30,16,23,27.10
2019,05,30,16,24,27.00
2019,05,30,16,25,26.90
2019,05,30,16,26,26.90
2019,05,30,16,27,26.90
2019,05,30,16,28,26.90
2019,05,30,16,29,26.80
2019,05,30,16,30,26.70
2019,05,30,16,31,26.70
2019,05,30,16,32,26.70
2019,05,30,16,33,26.70
2019,05,30,16,34,26.60
2019,05,30,16,35,26.60
2019,05,30,16,36,26.60
2019,05,30,16,37,26.50
2019,05,30,16,38,26.50
2019,05,30,16,39,26.50
2019,05,30,16,40,26.40
2019,05,30,16,41,26.40
2019,05,30,16,42,26.40
2019,05,30,16,43,26.50
2019,05,30,16,44,26.50
2019,05,30,16,45,26.50
2019,05,30,16,46,26.40
2019,05,30,16,47,26.30
2019,05,30,16,48,26.20
2019,05,30,16,49,26.20
2019,05,30,16,50,26.10
2019,05,30,16,51,26.10
2019,05,30,16,52,26.10
2019,05,30,16,53,26.10
2019,05,30,16,54,26.10
2019,05,30,16,55,26.10
2019,05,30,16,56,26.00
2019,05,30,16,57,25.90
2019,05,30,16,58,25.80
2019,05,30,16,59,25.80
2019,05,30,17,00,25.80
2019,05,30,17,01,25.70
2019,05,30,17,02,25.70
2019,05,30,17,03,25.70
2019,05,30,17,04,25.70
2019,05,30,17,05,25.70
2019,05,30,17,06,25.70
2019,05,30,17,07,25.60
2019,05,30,17,08,25.70
2019,05,30,17,09,25.70
2019,05,30,17,10,25.60
2019,05,30,17,11,25.50
2019,05,30,17,12,25.40
2019,05,30,17,13,25.40
2019,05,30,17,14,25.40
2019,05,30,17,15,25.30
2019,05,30,17,16,25.30
2019,05,30,17,17,25.40
2019,05,30,17,18,25.40
2019,05,30,17,19,25.40
2019,05,30,17,20,25.40
2019,05,30,17,21,25.50
2019,05,30,17,22,25.50
2019,05,30,17,23,25.50
2019,05,30,17,24,25.60
2019,05,30,17,25,25.60
2019,05,30,17,26,25.60
2019,05,30,17,27,25.60
2019,05,30,17,28,25.50
2019,05,30,17,29,25.50